Estación municipal de St. Hilari Sacalm (La Selva, Guilleries)

Consulta los datos en tiempo real de la estación municipal de St. Hilari Sacalm





Hora UTC 13:35
Temperatura 28.5 ºC
Humedad 51.2 %
Presión 1023.8 hPa
Pluja 0.0 mm
Velocidad viento 6.6 km/h
Dirección viento ESE
Radiación solar 696.4 W/m²

Webcam

Datos diarios 2026-09-02



Hora UTC (invierno +1h; verano +2h)
Temperatura (ºC) Humedad (%) Presión (hPa) Velocidad viento (km/h) Precipitación (mm) Radiación solar (W/m²)
Hora UTC Aire Humedad Presión Vel. Dir. Vel. Max Dir. Intent. máx 5 min. Rad. Sol.
00:05 18.8 82.6 1022.8 0.0 SW 0.0 SW 0.0 0.1
00:10 18.9 81.9 1022.8 0.0 NNE 0.0 SW 0.0 0.1
00:15 18.7 82.3 1022.8 0.0 NNE 0.0 SW 0.0 0.1
00:20 18.6 82.8 1022.8 0.0 NNE 0.0 SSW 0.0 0.1
00:25 18.5 83.0 1022.8 0.0 NNE 0.0 SSW 0.0 0.1
00:30 18.4 83.4 1022.8 0.0 NNE 0.0 SW 0.0 0.1
00:35 18.3 84.1 1022.8 0.0 NNE 0.0 SSW 0.0 0.1
00:40 18.4 83.9 1022.8 0.0 NNE 0.0 SSW 0.0 0.1
00:45 18.4 83.9 1022.8 0.0 NNE 0.0 SW 0.0 0.1
00:50 18.4 83.8 1022.8 0.0 NNE 0.0 WSW 0.0 0.1
00:55 18.3 84.4 1022.8 0.0 NNE 0.0 SSW 0.0 0.1
01:00 18.3 84.4 1022.7 0.0 NNE 0.0 SSW 0.0 0.1
01:05 18.3 84.5 1022.7 0.0 NNE 0.0 SSW 0.0 0.1
01:10 18.3 84.6 1022.7 0.0 NNE 0.0 SSW 0.0 0.1
01:15 18.3 84.8 1022.7 0.0 NNE 0.0 SSW 0.0 0.1
01:20 18.3 84.7 1022.7 0.0 NNE 0.0 SSW 0.0 0.2
01:25 18.2 85.0 1022.6 0.0 NNE 0.0 SSW 0.0 0.2
01:30 18.3 84.8 1022.6 0.0 NNE 0.0 SSW 0.0 0.1
01:35 18.2 85.0 1022.7 0.0 NNE 0.0 SSW 0.0 0.1
01:40 18.2 85.1 1022.6 0.0 NNE 0.0 SW 0.0 0.1
01:45 18.2 85.3 1022.5 0.0 NNE 0.0 SSW 0.0 0.1
01:50 18.3 85.0 1022.5 0.0 NNE 0.0 SSW 0.0 0.1
01:55 18.3 84.8 1022.5 0.0 NNE 0.0 SSW 0.0 0.1
02:00 18.1 84.9 1022.5 0.0 NNE 0.0 WSW 0.0 0.1
02:05 17.9 85.6 1022.6 0.0 NNE 0.0 SW 0.0 0.1
02:10 17.8 86.3 1022.6 0.0 NNE 0.0 SW 0.0 0.1
02:15 17.7 87.3 1022.6 0.0 NNE 0.0 SW 0.0 0.1
02:20 17.6 87.9 1022.6 0.0 NNE 0.0 SSW 0.0 0.1
02:25 17.6 88.7 1022.5 0.0 NNE 0.0 SSW 0.0 0.1
02:30 17.6 89.0 1022.5 0.0 NNE 0.0 SW 0.0 0.2
02:35 17.7 89.1 1022.5 0.0 NNE 0.0 SSW 0.0 0.1
02:40 17.8 88.7 1022.5 0.0 NNE 0.0 SSW 0.0 0.1
02:45 17.9 88.1 1022.5 0.0 NNE 0.0 SW 0.0 0.1
02:50 17.8 87.6 1022.5 0.0 NNE 0.0 SW 0.0 0.1
02:55 17.8 87.7 1022.6 0.0 NNE 0.0 S 0.0 0.1
03:00 17.6 87.9 1022.5 0.0 NNE 0.0 W 0.0 0.1
03:05 17.5 88.3 1022.5 0.0 NNE 0.0 SW 0.0 0.1
03:10 17.4 88.8 1022.6 0.0 NNE 0.0 WSW 0.0 0.1
03:15 17.4 89.3 1022.6 0.0 NNE 0.0 SSW 0.0 0.1
03:20 17.3 89.3 1022.6 0.0 NNE 0.0 SSW 0.0 0.1
03:25 17.2 89.3 1022.5 0.0 NNE 0.0 WSW 0.0 0.1
03:30 17.2 89.3 1022.5 0.0 NNE 0.0 WSW 0.0 0.1
03:35 17.1 89.1 1022.6 0.0 NNE 0.0 NW 0.0 0.1
03:40 17.1 88.7 1022.6 0.0 NNE 0.0 SW 0.0 0.1
03:45 17.1 88.6 1022.5 0.3 W 6.1 W 0.0 0.1
03:50 17.0 88.6 1022.5 0.0 NNE 0.0 SSW 0.0 0.1
03:55 17.0 88.8 1022.5 0.0 NNE 0.0 WSW 0.0 0.1
04:00 16.8 89.1 1022.5 0.0 W 3.4 SW 0.0 0.1
04:05 16.8 89.3 1022.4 0.0 NNE 0.0 WNW 0.0 0.1
04:10 16.8 89.1 1022.5 0.0 NNE 0.0 W 0.0 0.1
04:15 16.7 88.8 1022.4 0.0 NNE 0.0 W 0.0 0.1
04:20 16.7 88.9 1022.4 0.0 NNE 0.0 SSW 0.0 0.1
04:25 16.6 89.0 1022.4 0.0 NNE 0.0 W 0.0 0.1
04:30 16.6 88.8 1022.4 0.0 NNE 0.0 W 0.0 0.1
04:35 16.7 88.1 1022.4 0.0 NNE 0.0 WSW 0.0 0.1
04:40 16.8 86.8 1022.4 0.0 NNE 0.0 NW 0.0 0.1
04:45 16.9 86.1 1022.4 0.0 NNE 0.0 WNW 0.0 0.1
04:50 17.0 85.3 1022.3 0.0 NNE 0.0 WNW 0.0 0.1
04:55 17.0 84.8 1022.3 0.0 NNE 0.0 WNW 0.0 0.2
05:00 16.9 84.6 1022.4 0.0 NNE 0.0 WNW 0.0 0.3
05:05 16.9 84.5 1022.4 0.0 NNE 0.0 W 0.0 0.7
05:10 16.9 84.0 1022.5 0.0 NNE 0.0 NW 0.0 1.4
05:15 16.9 84.3 1022.5 0.0 NNE 0.0 SSE 0.0 2.5
05:20 16.7 85.0 1022.5 0.0 NNE 0.0 SW 0.0 4.1
05:25 16.5 85.4 1022.6 0.0 NNE 0.0 SW 0.0 6.2
05:30 16.5 85.4 1022.6 0.0 NNE 0.0 SSW 0.0 8.9
05:35 16.4 84.4 1022.6 0.0 NNE 0.0 WSW 0.0 12.6
05:40 16.5 83.1 1022.6 0.0 NNE 0.0 W 0.0 18.3
05:45 16.8 82.8 1022.6 0.0 NNE 0.0 S 0.0 21.3
05:50 16.8 83.2 1022.7 0.0 NNE 0.0 SSW 0.0 52.4
05:55 16.8 83.8 1022.7 0.0 NNE 0.0 SSW 0.0 71.1
06:00 17.2 82.8 1022.8 0.0 NNE 0.0 WSW 0.0 85.3
06:05 17.9 79.7 1022.8 0.0 NNE 0.0 SW 0.0 99.4
06:10 18.7 75.8 1022.8 0.0 NNE 0.0 W 0.0 113.3
06:15 19.4 72.1 1022.9 0.0 NNE 0.0 W 0.0 128.7
06:20 20.1 68.2 1022.9 0.0 NNE 0.0 WNW 0.0 143.6
06:25 20.4 66.7 1022.9 0.0 NNE 0.0 SW 0.0 158.8
06:30 20.9 64.9 1023.0 0.0 NNE 0.0 S 0.0 173.7
06:35 21.4 63.4 1023.0 0.0 NNE 0.0 SSW 0.0 188.7
06:40 21.9 62.2 1023.1 0.0 NNE 0.0 SW 0.0 203.3
06:45 22.4 59.3 1023.2 0.0 NNE 0.0 SW 0.0 219.1
06:50 22.5 59.6 1023.3 0.0 NNE 0.0 S 0.0 232.8
06:55 23.2 57.8 1023.3 0.0 NNE 0.0 S 0.0 248.0
07:00 23.3 55.3 1023.4 0.0 NNE 0.0 ESE 0.0 263.4
07:05 23.6 53.2 1023.5 0.0 NNE 0.0 ESE 0.0 279.1
07:10 23.8 54.1 1023.5 0.0 NNE 0.0 ENE 0.0 294.1
07:15 24.2 51.2 1023.5 0.0 NNE 0.0 ESE 0.0 309.4
07:20 24.6 45.2 1023.5 0.0 NNE 0.0 ENE 0.0 326.3
07:25 24.8 43.1 1023.5 0.0 NNE 0.0 SE 0.0 340.5
07:30 25.0 43.2 1023.5 0.0 NNE 0.0 ENE 0.0 355.6
07:35 25.1 43.4 1023.5 0.0 NNE 0.0 E 0.0 370.0
07:40 25.2 42.2 1023.5 0.0 NNE 0.0 E 0.0 385.7
07:45 25.1 44.1 1023.5 0.0 NNE 0.0 NE 0.0 399.9
07:50 25.2 44.4 1023.5 0.0 NNE 0.0 ENE 0.0 384.5
07:55 25.2 42.6 1023.5 0.0 NNE 0.0 ENE 0.0 421.7
08:00 25.3 43.4 1023.6 0.0 NNE 0.0 N 0.0 442.2
08:05 25.2 42.3 1023.6 0.0 NNE 0.0 SE 0.0 456.7
08:10 25.2 43.4 1023.6 0.0 NNE 0.0 NE 0.0 468.3
08:15 25.5 44.2 1023.7 0.0 NNE 0.0 ENE 0.0 484.0
08:20 25.6 42.6 1023.7 0.0 NNE 0.0 NE 0.0 498.3
08:25 25.6 41.8 1023.8 0.0 NNE 0.0 ENE 0.0 510.9
08:30 25.9 41.0 1023.8 0.0 NNE 0.0 ENE 0.0 523.0
08:35 25.8 41.5 1023.8 0.0 NNE 0.0 ENE 0.0 536.1
08:40 25.9 40.5 1023.8 0.0 NNE 0.0 ENE 0.0 548.3
08:45 25.7 40.7 1023.9 0.1 NE 6.1 NE 0.0 559.9
08:50 25.9 41.5 1024.0 0.0 NNE 0.0 NNE 0.0 572.9
08:55 26.0 41.2 1024.1 0.1 NE 8.8 NE 0.0 584.6
09:00 26.1 41.8 1024.1 3.7 E 11.5 E 0.0 595.9
09:05 26.2 40.9 1024.1 0.4 SE 6.1 SE 0.0 608.1
09:10 26.2 42.2 1024.1 1.9 E 8.8 ENE 0.0 618.8
09:15 26.3 43.4 1024.1 0.0 NNE 0.0 ENE 0.0 629.5
09:20 26.2 42.8 1024.1 4.7 ENE 11.5 ENE 0.0 640.7
09:25 26.4 42.4 1024.1 1.1 ENE 8.8 ENE 0.0 650.5
09:30 26.6 41.2 1024.2 3.6 ENE 11.5 ENE 0.0 659.9
09:35 26.6 40.6 1024.2 0.3 E 8.8 ENE 0.0 670.5
09:40 26.5 41.2 1024.2 2.3 ENE 14.2 ENE 0.0 680.0
09:45 26.4 41.5 1024.3 3.5 E 8.8 NE 0.0 690.1
09:50 27.0 40.7 1024.3 2.1 E 8.8 E 0.0 700.1
09:55 27.3 39.5 1024.3 0.0 NNE 0.0 NE 0.0 705.8
10:00 27.4 40.2 1024.3 0.4 E 6.1 E 0.0 706.1
10:05 27.4 39.9 1024.3 2.3 NE 8.8 NE 0.0 720.6
10:10 27.4 40.5 1024.3 3.0 NE 11.5 NE 0.0 727.6
10:15 27.5 40.1 1024.3 3.7 E 11.5 ESE 0.0 733.1
10:20 27.7 40.7 1024.3 2.6 ENE 11.5 ENE 0.0 734.1
10:25 27.5 41.6 1024.3 1.4 ENE 8.8 ENE 0.0 733.9
10:30 27.5 41.8 1024.2 3.9 ENE 11.5 NE 0.0 737.5
10:35 27.8 40.9 1024.2 3.2 ENE 8.8 ENE 0.0 734.8
10:40 27.7 41.1 1024.2 5.1 ENE 11.5 ENE 0.0 763.7
10:45 27.7 41.6 1024.2 6.9 ENE 14.2 ENE 0.0 770.2
10:50 27.8 41.6 1024.2 5.6 ENE 14.2 ENE 0.0 775.4
10:55 27.8 41.8 1024.2 6.1 ENE 14.2 NE 0.0 772.4
11:00 28.0 41.5 1024.2 8.5 ENE 16.9 ENE 0.0 780.4
11:05 28.0 42.0 1024.2 5.7 E 11.5 ESE 0.0 780.4
11:10 28.0 41.8 1024.2 2.3 ESE 16.9 ESE 0.0 785.7
11:15 28.2 41.4 1024.2 5.9 ESE 14.2 ESE 0.0 788.1
11:20 28.1 41.9 1024.1 6.6 E 14.2 ENE 0.0 793.7
11:25 28.4 42.3 1024.1 5.3 E 14.2 E 0.0 759.7
11:30 28.5 41.6 1024.1 4.9 ENE 19.6 NNE 0.0 761.1
11:35 28.3 41.2 1024.1 6.2 ESE 14.2 ENE 0.0 797.8
11:40 28.1 41.7 1024.1 5.8 ESE 16.9 ENE 0.0 793.3
11:45 28.2 41.1 1024.1 8.6 E 22.3 E 0.0 786.0
11:50 27.9 41.2 1024.0 11.1 ENE 25.0 NE 0.0 790.0
11:55 28.0 41.2 1024.0 9.9 ENE 19.6 E 0.0 788.7
12:00 28.0 41.3 1024.0 6.9 ENE 16.9 NNE 0.0 785.2
12:05 28.3 40.4 1023.9 8.7 E 22.3 NE 0.0 783.8
12:10 28.4 39.9 1023.9 9.5 E 22.3 ENE 0.0 784.5
12:15 28.2 40.4 1023.9 11.0 E 22.3 NE 0.0 778.9
12:20 28.2 40.2 1024.0 9.0 E 19.6 E 0.0 773.0
12:25 28.1 41.5 1023.9 8.4 ENE 19.6 ENE 0.0 768.8
12:30 28.2 42.8 1023.9 9.5 ENE 19.6 E 0.0 762.6
12:35 28.2 43.3 1023.9 9.4 E 22.3 E 0.0 718.6
12:40 28.1 45.9 1023.9 8.5 E 19.6 ESE 0.0 753.2
12:45 27.8 47.0 1024.0 10.8 SE 22.3 ESE 0.0 754.6
12:50 27.7 48.0 1024.0 8.1 SSE 16.9 SW 0.0 749.8
12:55 27.8 49.0 1023.9 7.4 ESE 22.3 E 0.0 744.0
13:00 27.8 48.8 1023.9 9.2 ESE 16.9 ESE 0.0 738.7
13:05 27.8 50.3 1023.9 10.0 ESE 19.6 ESE 0.0 731.9
13:10 28.8 49.4 1023.9 10.7 ESE 19.6 SSE 0.0 726.2
13:15 28.7 48.5 1023.8 9.4 ESE 27.7 E 0.0 719.4
13:20 28.5 50.1 1023.9 13.6 ESE 25.0 E 0.0 712.1
13:25 28.7 49.6 1023.9 9.6 SE 19.6 ESE 0.0 708.6
13:30 28.8 50.0 1023.9 8.8 ESE 19.6 S 0.0 702.3
13:35 28.5 51.2 1023.8 6.6 ESE 14.2 E 0.0 696.4
Máxima 28.8 89.3 1024.3 13.6 ESE 27.7 E 0.0 797.8
Mínima 16.4 39.5 1022.3
Total 0.0